Weather History for San Diego, CA

Change the Weather History Date:

Wednesday, November 7, 2012

  Actual Average Record
Temperature  
Mean Temperature 64 °F 63 °F  
Max Temperature 69 °F 71 °F 89 °F (1956)
Min Temperature 58 °F 56 °F 46 °F (1925)
Degree Days  
Heating Degree Days 1 3  
Month to date heating degree days 6 15  
Since 1 July heating degree days 10 36  
Cooling Degree Days 0 1  
Month to date cooling degree days 15 7  
Year to date cooling degree days 898 714  
Growing Degree Days 13 (Base 50)    
Moisture  
Dew Point 56 °F    
Average Humidity 81    
Maximum Humidity 93    
Minimum Humidity 68    
Precipitation  
Precipitation 0.00 in 0.02 in 0.77 in (1931)
Month to date precipitation 0.00 0.17  
Year to date precipitation 4.16 7.97  
Since 1 July precipitation 0.70 0.94  
Snow  
Snow 0.00 in - - ()
Month to date snowfall 0.0  
Year to date snowfall 0.0  
Since 1 July snowfall 0.0  
Snow Depth 0.00 in    
Sea Level Pressure  
Sea Level Pressure 30.04 in    
Wind  
Wind Speed 5 mph (NNW)    
Max Wind Speed 13 mph    
Max Gust Speed 16 mph    
Visibility 8 miles    
Events      
T = Trace of Precipitation, MM = Missing Value Source: NWS Daily Summary

Daily Weather History Graph

Daily Weather History Graph

Search for Another Location

Airport:

Trip Planner

Search our weather history database for the weather conditions in past years. The results will help you decide how hot, cold, wet, or windy it might be!

Date:

Astronomy

Nov. 07, 2012 Rise Set
Actual Time 6:12 AM PST 4:52 PM PST
Civil Twilight 5:46 AM PST 5:18 PM PST
Nautical Twilight 5:16 AM PST 5:47 PM PST
Astronomical Twilight 4:47 AM PST 6:16 PM PST
Moon No Moon Rise 12:44 PM PST (11/7)
Length of Visible Light 11h 31m
Length of Day
10h 40m
Last Quarter, 42% of the Moon is Illuminated
Nov 7
Last Quarter
Nov 13
New
Nov 20
First Quarter
Nov 28
Full
Dec 6
Last Quarter

Hourly Weather History & Observations

Time (PST) Temp. Dew Point Humidity Pressure Visibility Wind Dir Wind Speed Gust Speed Precip Events Conditions
12:51 AM 63.0 °F 57.9 °F 84% 30.08 in 7.0 mi NE 3.5 mph - N/A   Overcast
1:35 AM 62.6 °F 57.2 °F 82% 30.08 in 9.0 mi Calm Calm - N/A   Overcast
1:51 AM 62.1 °F 57.0 °F 84% 30.07 in 10.0 mi NW 3.5 mph - N/A   Mostly Cloudy
2:51 AM 61.0 °F 57.0 °F 87% 30.05 in 8.0 mi NE 4.6 mph - N/A   Mostly Cloudy
3:31 AM 60.8 °F 57.2 °F 88% 30.05 in 5.0 mi North 4.6 mph - N/A   Mostly Cloudy
3:51 AM 61.0 °F 57.0 °F 87% 30.04 in 4.0 mi North 3.5 mph - N/A   Mostly Cloudy
4:51 AM 59.0 °F 55.9 °F 90% 30.05 in 4.0 mi Calm Calm - N/A   Mostly Cloudy
5:19 AM 59.0 °F 55.4 °F 88% 30.05 in 4.0 mi NE 3.5 mph - N/A   Scattered Clouds
5:51 AM 57.9 °F 55.0 °F 90% 30.06 in 4.0 mi Calm Calm - N/A   Scattered Clouds
6:36 AM 57.2 °F 55.4 °F 94% 30.07 in 2.5 mi NE 3.5 mph - N/A   Mostly Cloudy
6:51 AM 57.9 °F 55.0 °F 90% 30.07 in 2.0 mi Calm Calm - N/A   Mostly Cloudy
7:28 AM 59.0 °F 55.4 °F 88% 30.07 in 3.0 mi Calm Calm - N/A   Mostly Cloudy
7:51 AM 59.0 °F 55.0 °F 87% 30.08 in 4.0 mi West 3.5 mph - N/A   Mostly Cloudy
8:43 AM 60.8 °F 55.4 °F 82% 30.08 in 6.0 mi Calm Calm - N/A   Mostly Cloudy
8:51 AM 62.1 °F 55.0 °F 78% 30.08 in 6.0 mi Calm Calm - N/A   Mostly Cloudy
9:18 AM 62.6 °F 55.4 °F 77% 30.08 in 7.0 mi NNW 6.9 mph - N/A   Mostly Cloudy
9:51 AM 64.0 °F 55.0 °F 73% 30.08 in 7.0 mi NW 8.1 mph - N/A   Scattered Clouds
10:51 AM 64.9 °F 55.9 °F 73% 30.06 in 9.0 mi West 9.2 mph - N/A   Scattered Clouds
11:51 AM 66.0 °F 55.9 °F 70% 30.04 in 8.0 mi NW 10.4 mph - N/A   Scattered Clouds
12:51 PM 66.0 °F 55.0 °F 68% 30.02 in 9.0 mi WNW 8.1 mph - N/A   Scattered Clouds
1:51 PM 66.9 °F 55.9 °F 68% 30.00 in 10.0 mi WNW 10.4 mph - N/A   Scattered Clouds
2:51 PM 66.9 °F 57.0 °F 70% 29.99 in 10.0 mi NW 9.2 mph - N/A   Partly Cloudy
3:51 PM 66.0 °F 57.0 °F 73% 29.98 in 10.0 mi WNW 9.2 mph - N/A   Partly Cloudy
4:51 PM 64.0 °F 57.0 °F 78% 29.99 in 10.0 mi WNW 6.9 mph - N/A   Partly Cloudy
5:51 PM 63.0 °F 57.0 °F 81% 29.99 in 10.0 mi North 8.1 mph - N/A   Partly Cloudy
6:51 PM 63.0 °F 57.0 °F 81% 29.99 in 10.0 mi North 4.6 mph - N/A   Partly Cloudy
7:27 PM 62.6 °F 57.2 °F 82% 29.99 in 10.0 mi Calm Calm - N/A   Mostly Cloudy
7:51 PM 63.0 °F 57.0 °F 81% 29.99 in 10.0 mi NNW 5.8 mph - N/A   Mostly Cloudy
8:51 PM 63.0 °F 57.0 °F 81% 30.00 in 10.0 mi NNW 3.5 mph - N/A   Mostly Cloudy
9:51 PM 63.0 °F 55.9 °F 78% 30.01 in 10.0 mi WNW 4.6 mph - N/A   Mostly Cloudy
10:11 PM 62.6 °F 55.4 °F 77% 30.01 in 10.0 mi NW 3.5 mph - N/A   Mostly Cloudy
10:51 PM 63.0 °F 55.0 °F 75% 30.02 in 10.0 mi WNW 3.5 mph - N/A   Mostly Cloudy
11:51 PM 63.0 °F 55.0 °F 75% 30.01 in 10.0 mi Calm Calm - N/A   Overcast